星链-11209 (STARLINK-11209)

导读

STARLINK-11209是美国SpaceX公司星链星座的成员卫星,于2024年9月20日发射入轨,部署在近地轨道。星链项目旨在构建全球卫星互联网星座,通过大规模低轨卫星组网,为全球尤其是基础设施匮乏的偏远地区提供高速低延迟的宽带互联网接入服务,可支持视频通话、在线游戏等应用,推动互联网覆盖的全球化普及。

基本信息
目录编号:
61200
目录名称:
STARLINK-11209
国际标识:
2024-171A
轨道中心:
EARTH
卫星名称:
星链-11209
卫星全名:
星链-11209 (STARLINK-11209)
卫星状态:
在轨 (已飞行632 天)
发射日期:
2024-09-20 UTC
国别 :
美国 (US)
星等 :
--
轨道信息
数据来源 国际轨道数据
星历时间: 2026-06-14T08:07:51+0800
18小时前
查看轨道信息
半长轴: 6737.876km
偏心率: 0.0001006
轨道倾角: 53.159°
近地点辐角 104.507°
升交点赤经 61.661°
平近点角 255.607°
近地点: 359.061km
远地点: 360.417km
周期: 91.737分钟
每日圈数: 15.69706
详细信息
固有亮度:
5
最大亮度:
2.5
卫星平台:
Starlink V1.0
覆盖范围:
全球
运营商:
太空探索技术公司
运营商所在国:
美国
制造商(研发单位):
太空探索技术公司
制造商所在国:
美国
使用方式:
暂无
卫星简介
Starlink 计划是 SpaceX 推出的全球卫星互联网项目,通过发射低轨道卫星,为全球尤其是偏远地区提供高速、低延迟的互联网服务。自 2019 年起,Starlink 已部署数千颗卫星,旨在缩小全球数字鸿沟,推动互联网普及。该项目还为军事、航空等行业提供通信支持,带来广泛经济效益。
2D轨道图
3D轨道图
轨道高度分析图
轨道倾角分析图
轨道综合分析图
查看轨道综合分析图